CamptonHillsWeather.com

Find the Weather for any City, State  
or Zipcode, or Country:

Campton Hills, IL Weather
Local Radar

Local Radar

Graphs, Details
Graphs and Gauges
Detailed Weather
Detailed Reports
Ajax Version (old)
Central Kane Co Summary
Davis Current Weather Graphs
Davis 24 Hour Weather History

CW3778 Data

Weather Underground
Maps
Temperature
Heat Index
Windchill
Humidity
Radar
Dew Point
Wind
Visibility
Visible Satellite
Satellite
Fronts
Snow Depth
Jet Stream
Flight Rules
Forecast Maps
Temperature Forecast
Maximum Temperature Forecast
Minimum Temperature Forecast
Dewpoint Forecast
Prevalent Weather
12Hr Probability of Precip.
Sky Cover
Health Maps
UV Forecast
Air Quality
Peak Air Quality Index
Weather Station
Davis Instruments Vantage Pro
Current Conditions [Select Refresh to Update]

Updated: 10:37pm on 9/24/16

(location)
Currently:
73.5F

Clear
Clear

High: 74.2 F< 
(2:20am
Low: 62.2 F 
(6:51pm)
Wind: S 2 mph
Light Air
Gust: 7 mph
Today's High Wind: 8 mph (12:00am)
Humidity: 80%
Pressure: 30.02 in  (Falling
Pressure Rate: -0.020 in/hr
Dew Point: 67.0F
Wind Chill: 73.5 F
Heat Index (feels like): 77.7 F
Comfort Level: Comfortable
Temperature Rate:  1.83F/hr
 
5 Day Forecast
 
Sun Mon Tue Wed Thu
Clear Clear Clear Clear Clear
Chance T-storms Mostly Cloudy Partly Cloudy Mostly Cloudy Partly Cloudy
82 67 67 68 71
54 46 47 49 51

Records and Normals
 
Temperature Forecast Normal Record
High 82 0 0
(0)
Low 54 0 0
(0)
 
Links
 
 
Weather Advisories
Full Advisory Text...
Weather Map

Web Cam

Almanac
 
Sunrise:  
6:46am
Moonrise: 
12:21am

Moon Phase:
27%

Sunset: 
6:48pm
Moonset:  
3:08pm
 Star Chart...
Rainfall Totals
Hourly Rain 0.00 in
Daily Rain: 0.00 in
Monthly Rain: 2.19 in
Yearly Rain: 26.55 in
Normal Rain, month to date: 0.00 in
Normal Rain, year to date: 0.00 in
Link to Village of Campton Hills Map

Link to Counties of Illinois Map

Local Weather Exchange Network
Station ID City 
(Click for Map Location)
Neighborhood 
(Click for History)
Last Update (Date & Time) Temperature
 ()
Dew
Point ()
Humidity 
(%)
Wind 
(mph)
from the Wind Gust 
(mph) 
Pressure(in) Hourly
Rain(in)
KILSAINT20 Saint Charles Knoll Creek Drive 09/25 10:28:02 66.4 63.0 90 0 North 0 30.01 0.00
KILSAINT17 Saint Charles Glen Oak Lane 09/25 10:34:22 73.6 66.0 78 0 North 0 30.11 0.00
KILSAINT15 Saint Charles Shoreline Drive 09/25 10:28:12 69.3 58.0 66 0 North 0 30.05 0.00
KILSTCHA10 St. Charles Hunt Club 09/25 10:37:28 78.1 45.0 31 2 South 2 30.03 0.00
KILCAMPT3 Campton Hills Campton Hills 09/25 10:00:49 72.1 65.0 78 0 South 7 30.04 0.00
KILSAINT6 Saint Charles 3 Lakes 09/25 10:34:07 75.2 65.0 71 2 SW 0 29.75 0.00
KILSOUTH10 South Elgin East Thornwood Drive 09/25 10:37:36 72.0 64.0 76 0 North 0 30.05 0.00
KILSAINT9 Saint Charles Fox Chase 09/25 10:38:11 75.4 67.0 75 0 SW 0 30.07 0.00
KILGENEV6 Geneva Dover Ridge 09/25 10:38:15 73.0 66.0 79 4 South 4 30.00 0.00
KILELBUR18 Elburn Elodie Drive 09/25 10:32:13 68.7 65.0 89 0 North 0 30.05 0.00
KILGENEV10 Geneva Southampton Drive 09/25 10:35:32 72.9 69.0 87 1 SSW 2 30.05 0.00
KILSTCHA8 St. Charles Ronzheimer Ave. & S. Tyler Rd. 09/25 10:38:07 75.2 67.0 75 6 South 8 30.00 0.00
KILGENEV18 Geneva downtown 09/25 10:37:38 77.6 67.0 69 3 ESE 8 30.00 0.00
KILGENEV3 Geneva Mill Creek (Blackberry Way) 09/25 10:38:15 73.8 66.0 78 2 SSE 11 30.00 0.00
KILSTCHA1 St Charles CamptonHillsWeather.com Central Kane County 09/25 09:56:13 72.1 67.0 83 1 SE 6 30.05 0.00
KILGENEV17 Geneva Geneva 09/25 10:28:11 73.6 63.0 70 0 North 0 30.06 0.00
KILWAYNE7 Wayne Honey Hill 09/25 10:37:46 73.5 70.0 90 0 North 0 30.03 0.00
KILGENEV2 Geneva Mill Creek 09/25 10:35:15 73.1 -34.0 0 6 SE 8 29.97 0.00
KILBATAV13 Batavia Blackhawk Dr, Batavia 09/25 10:38:04 74.1 63.0 68 3 SE 5 30.06 0.00
KILELBUR23 Elburn Elburn, IL 09/25 10:37:04 73.6 66.0 78 5 South 0 29.93 0.00
KILELBUR11 Elburn Cheval de Selle 09/25 10:38:02 75.5 66.0 74 2 SSW 0 29.04 0.00
KILBATAV7 Batavia Charleston Street 09/25 10:35:27 69.8 66.0 87 0 North 0 30.06 0.00
KILBATAV16 Batavia Park Street 09/25 10:37:31 77.0 66.0 69 2 East 0 29.33 0.00
KILBATAV6 Batavia Tri Cities on the Fox River 2 09/25 10:30:18 68.0 62.0 80 0 SE 0 30.04 0.00
KILBATAV1 Batavia Tri-Cities on the Fox River 09/25 10:37:06 75.1 64.0 69 0 ESE 1 30.04 0.00
KILELGIN16 Elgin Providence Subdivision 09/25 10:37:56 76.4 67.0 73 4 SSE 0 30.03 0.00
KILELBUR10 Elburn Prairie Valley North 09/25 10:37:36 73.0 64.0 74 7 SE 8 30.04 0.00
KILELGIN20 Elgin Williamsburg Drive 09/25 10:38:16 73.2 66.0 79 0 North 0 30.04 0.00
KILELBUR15 Elburn East North Street 09/25 10:27:58 79.7 66.0 63 0 North 0 30.05 0.00
KILBATAV10 Batavia Deerpath Road 09/25 10:33:13 70.2 66.0 86 0 North 0 30.05 0.00
KILELBUR5 Elburn Prairie Highlands 09/25 10:35:15 73.1 67.0 81 2 SSE 5 30.01 0.00
KILMAPLE5 Maple Park 47 Cell Tower 09/25 10:38:12 77.0 61.0 57 4 SE 4 30.02 0.00
KDPA Chicago DuPage Official Station 09/25 09:52:00 71.0 62.0 73 10 South --- 30.06 ---
KARR Aurora Official Station 09/25 09:52:00 73.0 64.0 73 9 South --- 30.06 ---
KDKB DeKalb Official Station 09/25 10:15:00 72.0 66.0 81 10 SSE --- 30.05 ---
KORD Chicago Official Station 09/25 09:51:00 70.0 61.0 73 8 South --- 30.06 ---
Full Advisory Text
No Warnings

Ambient Weather and Weather Underground
 Never base important decisions on this or any weather information obtained from the Internet
Updated Automatically by Ambient Weather's Virtual Weather Station  V13.01